DM5RC Weather Reports


Display with metric or nautical units.
time (UTC)temp
F
wind
direction
speed
MPH
gust
MPH
rain 1hr
in
rain 24hr
in
rain mn
in
humidity
%
barometer
mb
20260503180838 76 214 1.0 3.0 0.00 0.00 0.00 32 1009.8
20260503180317 77 233 2.0 3.0 0.00 0.00 0.00 32 1009.8
20260503175817 77 205 2.0 5.0 0.00 0.00 0.00 31 1009.7
20260503175317 77 241 2.0 5.0 0.00 0.00 0.00 31 1009.7
20260503174838 78 217 2.0 4.0 0.00 0.00 0.00 31 1009.7
20260503174338 78 222 2.0 4.0 0.00 0.00 0.00 30 1009.7
20260503173820 78 207 1.0 2.0 0.00 0.00 0.00 30 1009.7
20260503173323 79 238 1.0 3.0 0.00 0.00 0.00 30 1009.7
20260503172825 79 211 1.0 4.0 0.00 0.00 0.00 29 1009.7
20260503172327 79 191 1.0 4.0 0.00 0.00 0.00 29 1009.7
20260503171826 80 214 1.0 4.0 0.00 0.00 0.00 29 1009.7
20260503171327 80 182 2.0 7.0 0.00 0.00 0.00 28 1009.7
20260503170840 80 167 2.0 7.0 0.00 0.00 0.00 28 1009.7
20260503170340 81 261 3.0 7.0 0.00 0.00 0.00 28 1009.7
20260503150822 84 217 4.0 8.0 0.00 0.00 0.00 27 1010.1
20260503150327 84 186 4.0 8.0 0.00 0.00 0.00 26 1010.2
20260503131316 84 226 6.0 14.0 0.00 0.00 0.00 26 1011.4
20260503130836 84 255 2.0 13.0 0.00 0.00 0.00 27 1011.4
20260503130318 84 289 6.0 11.0 0.00 0.00 0.00 26 1011.7
20260503110829 82 259 5.0 11.0 0.00 0.00 0.00 28 1012.6
20260503110333 82 240 7.0 13.0 0.00 0.00 0.00 28 1012.6
20260503090314 78 271 7.0 13.0 0.00 0.00 0.00 35 1013.7
20260503081350 75 259 5.0 14.0 0.00 0.00 0.00 37 1013.8
20260503080852 74 192 7.0 14.0 0.00 0.00 0.00 38 1013.8
20260503080313 74 274 6.0 10.0 0.00 0.00 0.00 38 1013.8
20260503072822 72 253 3.0 5.0 0.00 0.00 0.00 43 1013.8
20260503072322 71 241 2.0 6.0 0.00 0.00 0.00 44 1013.8
20260503071822 71 202 2.0 7.0 0.00 0.00 0.00 46 1013.8
20260503071345 70 227 2.0 5.0 0.00 0.00 0.00 46 1013.8
20260503070824 69 181 2.0 6.0 0.00 0.00 0.00 46 1013.9
20260503070324 69 219 2.0 6.0 0.00 0.00 0.00 46 1013.9
20260503060313 63 124 3.0 6.0 0.00 0.00 0.00 53 1013.8
20260503054345 59 269 2.0 140.0 0.00 0.00 0.00 59 1013.8
20260503053824 59 187 2.0 4.0 0.00 0.00 0.00 60 1013.8
20260503053346 58 209 1.0 2.0 0.00 0.00 0.00 61 1013.9
20260503052848 57 202 1.0 2.0 0.00 0.00 0.00 62 1013.8
20260503052330 56 194 0.0 1.0 0.00 0.00 0.00 63 1013.8
20260503051812 56 194 0.0 1.0 0.00 0.00 0.00 64 1013.8
20260503051315 55 194 0.0 1.0 0.00 0.00 0.00 64 1013.8
20260503050817 55 194 0.0 0.0 0.00 0.00 0.00 65 1013.8
20260503050320 54 194 0.0 0.0 0.00 0.00 0.00 66 1013.8
20260503045824 54 194 0.0 0.0 0.00 0.00 0.00 65 1013.8
20260503045325 53 194 0.0 0.0 0.00 0.00 0.00 66 1013.8
20260503044828 53 194 0.0 0.0 0.00 0.00 0.00 67 1013.8
20260503044328 52 194 0.0 0.0 0.00 0.00 0.00 68 1013.7
20260503043829 52 194 0.0 0.0 0.00 0.00 0.00 69 1013.8
20260503043314 51 194 0.0 0.0 0.00 0.00 0.00 69 1013.7
20260503042815 51 194 0.0 0.0 0.00 0.00 0.00 71 1013.7
20260503042316 51 194 0.0 0.0 0.00 0.00 0.00 72 1013.8
20260503041839 51 194 0.0 0.0 0.00 0.00 0.00 72 1013.8
20260503041321 50 194 0.0 0.0 0.00 0.00 0.00 73 1013.8
20260503040822 50 194 0.0 0.0 0.00 0.00 0.00 74 1013.8
20260503040323 49 194 0.0 0.0 0.00 0.00 0.00 75 1013.8
20260503035824 48 194 0.0 0.0 0.00 0.00 0.00 76 1013.8
20260503035324 48 194 0.0 0.0 0.00 0.00 0.00 75 1013.8
20260503034824 48 194 0.0 0.0 0.00 0.00 0.00 74 1013.8
20260503034320 48 194 0.0 0.0 0.00 0.00 0.00 74 1013.8
20260503033824 48 194 0.0 0.0 0.00 0.00 0.00 75 1013.8
20260503033327 48 194 0.0 0.0 0.00 0.00 0.00 75 1013.8
20260503032822 48 194 0.0 0.0 0.00 0.00 0.00 74 1013.8
20260503032326 48 194 0.0 0.0 0.00 0.00 0.00 74 1013.8
20260503031829 48 194 0.0 0.0 0.00 0.00 0.00 73 1013.8
20260503031329 48 194 0.0 0.0 0.00 0.00 0.00 72 1013.8
20260503030830 49 194 0.0 0.0 0.00 0.00 0.00 71 1013.8
20260503030330 49 194 0.0 0.0 0.00 0.00 0.00 71 1013.9
20260503025829 49 194 0.0 0.0 0.00 0.00 0.00 71 1013.8
20260503025330 49 194 0.0 0.0 0.00 0.00 0.00 70 1013.9
20260503024812 50 194 0.0 0.0 0.00 0.00 0.00 70 1013.9
20260503024315 50 194 0.0 0.0 0.00 0.00 0.00 70 1014.0
20260503023818 50 194 0.0 0.0 0.00 0.00 0.00 70 1014.0
20260503023320 50 194 0.0 0.0 0.00 0.00 0.00 70 1014.0
20260503022823 50 194 0.0 0.0 0.00 0.00 0.00 69 1014.0
20260503022326 50 194 0.0 0.0 0.00 0.00 0.00 68 1014.0
20260503021850 50 194 0.0 0.0 0.00 0.00 0.00 68 1014.0
20260503021331 51 194 0.0 0.0 0.00 0.00 0.00 68 1014.1
20260503020812 51 194 0.0 0.0 0.00 0.00 0.00 67 1014.1
20260503020314 52 194 0.0 0.0 0.00 0.00 0.00 66 1014.1
20260503015817 52 194 0.0 0.0 0.00 0.00 0.00 64 1014.0
20260503015320 52 194 0.0 0.0 0.00 0.00 0.00 63 1014.1
20260503014825 52 194 0.0 0.0 0.00 0.00 0.00 63 1014.1
20260503014320 51 194 0.0 0.0 0.00 0.00 0.00 63 1014.2
20260503013841 52 194 0.0 0.0 0.00 0.00 0.00 63 1014.2
20260503013320 52 194 0.0 0.0 0.00 0.00 0.00 62 1014.3
20260503012821 53 194 0.0 0.0 0.00 0.00 0.00 61 1014.3
20260503012407 53 194 0.0 0.0 0.00 0.00 0.00 60 1014.4
20260503011823 53 194 0.0 0.0 0.00 0.00 0.00 58 1014.4
20260503011324 54 194 0.0 0.0 0.00 0.00 0.00 58 1014.4
20260503010824 54 194 0.0 0.0 0.00 0.00 0.00 58 1014.4
20260503010323 54 194 0.0 0.0 0.00 0.00 0.00 57 1014.4
20260503005823 54 194 0.0 0.0 0.00 0.00 0.00 57 1014.5
20260503005324 55 194 0.0 1.0 0.00 0.00 0.00 56 1014.5
20260503004830 55 194 0.0 1.0 0.00 0.00 0.00 56 1014.5
20260503004315 55 194 0.0 1.0 0.00 0.00 0.00 56 1014.5
20260503003818 55 194 0.0 1.0 0.00 0.00 0.00 55 1014.6
20260503003405 55 197 0.0 0.0 0.00 0.00 0.00 55 1014.7
20260503002821 55 197 0.0 0.0 0.00 0.00 0.00 55 1014.7
20260503002341 55 197 0.0 1.0 0.00 0.00 0.00 55 1014.6
20260503001818 55 197 0.0 1.0 0.00 0.00 0.00 55 1014.7
20260503001340 55 197 0.0 1.0 0.00 0.00 0.00 55 1014.7
20260503000823 56 197 0.0 0.0 0.00 0.00 0.00 54 1014.7
20260503000325 56 197 0.0 0.0 0.00 0.00 0.00 54 1014.8
20260502235825 56 197 0.0 1.0 0.00 0.00 0.00 54 1014.8
20260502235328 56 197 0.0 1.0 0.00 0.00 0.00 54 1014.9
20260502234829 56 197 0.0 0.0 0.00 0.00 0.00 53 1015.0
20260502234312 57 197 0.0 0.0 0.00 0.00 0.00 53 1015.0
20260502233833 57 197 0.0 1.0 0.00 0.00 0.00 52 1015.0
20260502233312 57 197 0.0 1.0 0.00 0.00 0.00 52 1015.1
20260502232812 57 197 0.0 1.0 0.00 0.00 0.00 52 1015.1
20260502232313 57 197 0.0 1.0 0.00 0.00 0.00 52 1015.2
20260502231815 57 191 0.0 1.0 0.00 0.00 0.00 52 1015.2
20260502231317 57 191 0.0 1.0 0.00 0.00 0.00 52 1015.3
20260502230819 57 199 0.0 1.0 0.00 0.00 0.00 52 1015.3
20260502230322 57 199 0.0 2.0 0.00 0.00 0.00 52 1015.3
20260502225840 58 203 0.0 2.0 0.00 0.00 0.00 52 1015.4
20260502225322 57 206 0.0 1.0 0.00 0.00 0.00 52 1015.4
20260502224824 57 206 0.0 1.0 0.00 0.00 0.00 52 1015.4
20260502224327 58 205 0.0 1.0 0.00 0.00 0.00 52 1015.5
20260502223813 58 206 0.0 1.0 0.00 0.00 0.00 52 1015.5
20260502223314 58 206 0.0 1.0 0.00 0.00 0.00 53 1015.5
20260502222818 58 206 0.0 1.0 0.00 0.00 0.00 52 1015.6
20260502222335 58 206 0.0 0.0 0.00 0.00 0.00 52 1015.6
20260502221835 58 206 0.0 1.0 0.00 0.00 0.00 52 1015.6
20260502221315 59 206 0.0 1.0 0.00 0.00 0.00 52 1015.6
20260502220838 59 206 0.0 1.0 0.00 0.00 0.00 51 1015.6
20260502220339 59 204 0.0 1.0 0.00 0.00 0.00 51 1015.6
20260502215831 60 204 0.0 1.0 0.00 0.00 0.00 51 1015.7
20260502215313 60 205 0.0 1.0 0.00 0.00 0.00 51 1015.6
20260502214816 60 205 0.0 1.0 0.00 0.00 0.00 50 1015.7
20260502214319 61 205 0.0 2.0 0.00 0.00 0.00 50 1015.7
20260502213820 61 205 0.0 3.0 0.00 0.00 0.00 49 1015.7
20260502213323 61 205 1.0 3.0 0.00 0.00 0.00 49 1015.7
20260502212827 61 217 1.0 2.0 0.00 0.00 0.00 49 1015.8
20260502212330 61 208 1.0 2.0 0.00 0.00 0.00 49 1015.8
20260502211831 62 206 1.0 2.0 0.00 0.00 0.00 48 1015.8
20260502211314 62 219 1.0 2.0 0.00 0.00 0.00 48 1015.9
20260502210836 62 195 0.0 1.0 0.00 0.00 0.00 48 1015.9
20260502210318 62 207 0.0 2.0 0.00 0.00 0.00 47 1016.0
20260502205822 63 210 1.0 3.0 0.00 0.00 0.00 47 1016.0
20260502205327 63 207 1.0 4.0 0.00 0.00 0.00 46 1015.9
20260502204849 63 241 2.0 4.0 0.00 0.00 0.00 46 1015.9
20260502204332 64 209 1.0 4.0 0.00 0.00 0.00 46 1016.0
20260502203816 63 212 1.0 4.0 0.00 0.00 0.00 46 1016.0
20260502203319 64 200 1.0 2.0 0.00 0.00 0.00 46 1016.1
20260502202823 64 207 1.0 2.0 0.00 0.00 0.00 46 1016.1
20260502202345 64 226 1.0 2.0 0.00 0.00 0.00 45 1016.2
20260502201826 64 189 1.0 2.0 0.00 0.00 0.00 45 1016.2
20260502201324 64 191 1.0 2.0 0.00 0.00 0.00 45 1016.2
20260502200824 65 181 1.0 2.0 0.00 0.00 0.00 45 1016.3
20260502200325 65 163 0.0 1.0 0.00 0.00 0.00 44 1016.4
20260502195817 65 163 0.0 1.0 0.00 0.00 0.00 44 1016.3
20260502195316 65 163 1.0 1.0 0.00 0.00 0.00 44 1016.3
20260502194817 64 162 1.0 1.0 0.00 0.00 0.00 45 1016.4
20260502194316 64 155 0.0 2.0 0.00 0.00 0.00 47 1016.3
20260502193818 65 155 0.0 0.0 0.00 0.00 0.00 44 1016.4
20260502193317 67 156 0.0 0.0 0.00 0.00 0.00 43 1016.4
20260502192818 68 156 0.0 3.0 0.00 0.00 0.00 40 1016.3
20260502192320 68 155 0.0 3.0 0.00 0.00 0.00 39 1016.3
20260502191821 68 184 0.0 2.0 0.00 0.00 0.00 39 1016.2
20260502191322 69 215 0.0 2.0 0.00 0.00 0.00 38 1016.3
20260502190825 69 155 1.0 2.0 0.00 0.00 0.00 38 1016.3
20260502190347 68 141 0.0 1.0 0.00 0.00 0.00 38 1016.3
20260502185829 68 138 0.0 2.0 0.00 0.00 0.00 39 1016.2
20260502185313 68 136 1.0 2.0 0.00 0.00 0.00 40 1016.2
20260502184818 69 215 0.0 0.0 0.00 0.00 0.00 42 1016.3
20260502184323 70 216 0.0 0.0 0.00 0.00 0.00 40 1016.3
20260502183828 70 215 0.0 0.0 0.00 0.00 0.00 38 1016.3
20260502183313 71 216 0.0 0.0 0.00 0.00 0.00 37 1016.3
20260502182816 72 215 0.0 0.0 0.00 0.00 0.00 36 1016.2
20260502182321 73 215 0.0 0.0 0.00 0.00 0.00 35 1016.2
20260502181316 75 215 0.0 1.0 0.00 0.00 0.00 32 1016.2